Location: Bukit Nyuki
(2.5885°N, 113.7476°E)
Time: 05:19:20
(UTC+00:00)

Cosmos 2333 Rocket - Pass Details

Date: 18 May 2021
Orbit: 839 x 862 km, 70.8° (Epoch: 22 June)

Event Time Altitude Azimuth Distance (km) Brightness Sun altitude
Exits shadow 20:11:50 24° 337° (NNW) 1,717 3.8 -29.3°
Drops below altitude 10° 20:14:17 10° 353° (N) 2,488 4.8 -28.7°
Sets 20:16:55 0° 1° (N) 3,424 5.7 -28.1°
